Wetbulb
69.46 71.02 72.37 73.07 73.37 74.21 74.53 74.86 75.27 75.99 75.95 74.88 73.71 72.56 72.06 72.97 73.71 73.45 74.17 75.19 75.51 75.88 77.09 75.98 76.89 76.92 76.99 76.52 76.66 76.28 75.96 73.45 75.84 73.88 73.61 74.93 75.05 74.90 75.42 74.41 74.07 73.78 73.83
68.12 69.87 71.35 71.67 72.60 73.69 74.83 75.47 75.59 76.06 76.31 77.20 75.77 74.49 73.74 73.62 72.79 72.93 74.94 74.81 75.87 76.54 76.82 76.81 76.70 77.63 75.53 76.69 76.15 76.61 74.69 74.23 75.09 73.57 70.58 69.83 73.24 73.13 73.54 75.08 74.79 73.45 74.20
68.00 69.58 70.45 71.64 72.40 73.50 74.52 75.57 75.90 76.09 76.71 76.00 77.15 74.41 74.40 73.71 72.43 73.22 72.94 74.15 76.11 76.72 77.11 76.74 77.96 77.17 76.88 74.67 76.13 76.45 76.70 72.91 74.72 75.94 74.45 70.83 65.38 71.42 74.35 75.39 75.16 75.90 75.08
70.10 70.58 70.98 71.33 71.83 73.14 75.07 76.15 76.47 76.22 76.59 76.20 75.70 74.54 72.21 69.80 71.85 72.19 73.29 74.18 76.47 76.32 76.86 77.20 77.27 77.29 75.97 78.13 76.23 76.46 76.67 76.06 74.18 74.66 74.88 74.88 73.63 70.36 71.66 73.73 74.26 75.50 75.01
68.73 69.33 70.70 71.17 71.90 73.63 74.19 75.76 76.88 76.19 76.70 76.28 75.84 73.99 73.56 72.75 73.21 73.81 75.13 78.12 77.30 76.62 76.28 77.11 77.74 76.83 75.77 77.62 78.23 77.09 77.27 76.22 73.83 73.56 73.68 74.45 74.36 74.36 71.27 66.85 71.85 74.53 74.99
68.92 70.47 70.08 72.22 71.95 73.31 74.67 75.50 76.31 76.69 76.81 76.12 75.52 75.00 74.88 73.66 71.51 72.87 73.23 73.28 74.80 75.39 77.11 76.79 77.97 77.71 77.60 77.37 76.72 77.39 77.31 76.77 76.36 75.32 74.08 73.69 72.66 71.10 72.44 70.38 71.59 69.65 72.77
69.27 69.40 70.00 71.08 72.55 73.35 74.42 74.87 75.93 75.72 75.72 74.79 74.82 74.61 74.59 75.11 75.13 74.97 73.47 73.85 73.58 73.59 76.95 77.49 77.55 76.78 78.35 78.16 78.06 77.82 77.35 76.39 75.73 76.72 74.89 73.55 73.50 74.67 70.89 73.50 72.00 67.86 71.73
69.17 69.36 70.08 71.42 72.63 73.68 74.37 74.98 75.24 75.70 75.75 74.92 75.00 75.60 74.77 73.79 73.91 74.99 73.24 74.01 73.57 74.51 78.01 75.94 76.42 77.39 77.39 77.01 77.74 76.36 75.42 77.44 75.90 76.47 76.96 75.26 73.62 73.85 74.00 73.72 72.59 69.13 71.59
68.82 69.18 70.30 71.64 72.86 73.65 74.35 75.08 75.21 75.94 75.49 74.67 74.97 74.67 75.02 75.72 74.72 76.12 75.31 74.23 76.88 75.72 77.84 76.91 76.53 76.72 76.72 77.01 78.55 75.32 76.69 76.99 76.34 76.38 76.76 74.94 74.18 74.57 74.76 74.36 74.45 72.89 69.14
69.95 70.28 70.63 71.23 72.69 73.62 74.54 75.20 75.47 75.56 75.87 75.44 74.86 74.38 74.39 75.32 75.68 76.06 76.53 74.81 75.95 76.57 75.14 76.68 77.08 76.56 76.85 78.08 79.11 76.76 77.94 78.10 75.83 74.85 76.25 76.99 74.78 75.37 74.96 74.69 74.67 76.24 72.89
69.87 70.55 71.31 71.67 72.62 73.64 74.06 74.90 75.27 75.25 75.29 75.28 75.00 74.82 74.26 74.29 74.71 74.53 75.05 75.84 76.06 76.88 76.56 77.08 77.38 77.95 76.23 77.74 78.71 78.32 77.20 76.84 76.56 77.16 76.77 76.60 77.73 74.98 74.67 74.71 74.99 74.36 73.60
69.39 70.69 71.70 71.99 72.45 73.03 73.72 74.15 75.32 75.05 75.53 75.87 75.51 74.47 74.35 74.73 73.92 74.39 75.27 76.31 76.98 76.89 76.45 77.26 77.57 77.54 76.47 76.05 77.72 76.63 76.09 76.47 75.94 76.10 76.51 75.68 74.94 77.84 77.64 74.96 77.94 77.23 76.80
67.95 69.47 70.71 71.86 72.97 73.74 74.22 74.48 75.15 75.28 75.59 75.66 75.13 74.79 74.03 73.83 73.82 74.33 74.75 76.70 77.61 76.75 75.49 76.78 77.17 77.57 76.89 77.62 77.46 77.56 76.24 76.11 76.19 76.32 76.74 75.93 77.15 76.87 76.10 76.39 75.61 74.81 74.81
66.36 67.35 68.94 69.85 71.82 73.29 74.28 75.02 75.21 76.13 75.91 75.54 75.12 74.49 74.40 73.98 73.79 75.08 76.22 75.27 77.28 76.75 76.63 76.47 77.53 76.47 76.96 77.19 77.13 76.60 76.61 75.65 76.22 76.56 77.30 76.82 77.26 76.99 77.37 75.80 77.32 76.44 75.32
64.49 65.33 66.57 68.85 69.87 70.46 71.81 73.57 74.48 76.36 76.31 75.68 75.57 76.06 76.38 76.60 76.47 76.32 76.82 76.93 77.02 76.68 77.41 77.08 77.34 76.88 76.50 75.18 77.16 76.06 75.73 75.81 75.00 77.04 77.33 77.04 77.17 73.66 74.52 75.36 77.23 78.12 75.59
62.66 63.53 64.59 66.04 68.28 69.66 70.30 71.04 72.29 74.03 75.01 75.26 75.41 77.57 78.02 77.88 77.68 77.69 77.83 77.19 76.90 77.39 77.37 76.90 77.10 76.79 75.06 69.88 69.14 72.99 75.35 76.57 76.31 75.22 77.07 78.02 74.67 73.42 70.45 69.71 69.74 72.14 75.92
62.65 63.20 63.92 64.41 65.45 66.64 68.97 70.18 70.91 72.42 74.12 73.57 74.57 74.80 76.64 77.13 77.73 77.76 77.59 77.42 76.80 77.34 77.14 77.18 77.19 76.98 77.80 67.76 66.25 68.36 73.41 74.03 75.79 76.20 75.81 75.65 74.68 74.48 77.36 70.70 69.07 69.27 67.62
62.55 63.04 63.70 64.56 65.40 66.32 66.82 68.70 70.64 71.64 71.62 72.26 73.30 73.65 73.45 75.08 76.37 77.38 76.84 77.28 77.16 76.75 76.65 76.97 77.42 77.48 77.15 67.17 65.51 67.12 74.11 74.66 75.12 76.40 76.48 77.06 77.83 77.51 77.59 76.92 76.37 76.62 77.04
62.81 63.41 64.28 64.94 65.68 65.68 66.66 67.27 67.95 69.82 71.24 70.65 71.30 73.65 73.50 72.86 74.45 75.68 77.00 76.78 76.78 76.56 76.70 77.17 77.47 77.09 77.26 64.93 64.52 67.86 75.11 73.78 75.07 76.07 77.45 77.76 77.35 71.43 67.26 76.18 76.36 76.03 75.96
63.58 63.95 65.09 65.34 65.26 65.83 66.42 66.36 66.36 67.85 68.86 70.98 70.10 71.83 72.87 72.97 72.84 73.62 76.31 77.28 77.25 76.89 75.36 76.09 77.09 73.88 77.58 66.69 62.70 66.31 73.14 73.53 73.26 76.34 77.00 68.97 72.65 67.70 64.13 74.92 75.82 75.06 75.33
64.03 65.20 65.18 64.86 65.39 66.13 66.01 65.44 66.19 66.89 69.53 70.87 72.42 71.64 70.82 73.40 74.72 74.44 75.35 77.20 76.93 76.60 76.60 76.76 77.17 77.73 76.53 76.85 61.65 60.86 74.81 73.00 73.66 73.45 73.49 74.70 63.85 61.65 60.22 61.54 76.12 74.70 73.65
63.95 64.63 64.47 64.71 65.83 66.26 65.80 65.08 66.57 69.42 70.81 70.42 70.40 71.73 70.29 67.59 70.39 71.36 71.87 74.97 75.84 75.80 76.25 76.17 76.09 75.98 78.20 68.45 60.72 60.05 62.88 70.34 74.10 73.79 72.28 73.48 60.16 57.32 57.86 61.25 64.74 60.88 63.32
63.84 64.78 64.66 64.70 65.27 65.74 66.58 65.25 68.20 69.69 70.56 70.43 69.26 70.68 70.72 67.88 68.00 65.27 62.54 65.13 70.91 73.98 73.87 74.10 73.75 73.98 75.17 76.15 61.86 58.55 59.75 61.55 71.35 73.23 67.90 60.25 57.14 56.78 59.41 58.55 59.09 59.19 70.49
63.07 63.69 63.52 63.79 64.17 65.21 65.23 65.33 66.25 68.85 69.01 68.95 69.55 68.87 70.18 70.52 70.59 68.03 67.30 64.83 68.58 72.99 73.71 73.58 73.70 73.60 74.44 75.20 74.12 67.35 64.67 60.76 64.56 63.70 69.29 66.24 64.45 64.08 64.56 66.23 65.24 70.16 72.26
63.51 64.04 63.49 63.71 63.98 65.67 65.74 65.23 65.67 67.19 66.04 67.24 67.36 67.49 67.83 69.15 70.22 70.22 68.00 66.47 64.55 62.85 73.39 74.64 74.76 72.96 73.55 73.90 69.61 69.83 71.80 71.84 68.73 69.87 73.04 71.21 70.68 70.20 70.02 70.59 70.89 71.32 72.30
63.80 63.82 63.99 63.96 64.34 65.28 65.52 65.60 67.57 67.83 66.05 65.31 65.54 65.70 65.51 66.54 68.89 67.82 69.46 55.41 57.80 54.56 55.15 54.42 60.94 73.20 62.51 56.97 54.52 56.44 55.36 56.09 55.61 70.97 71.36 69.50 69.46 69.44 69.50 69.26 68.77 70.42 69.48
MSLP
1005.96 1006.59 1006.99 1007.76 1008.47 1009.52 1010.29 1011.11 1012.03 1012.98 1013.64 1014.07 1014.30 1014.27 1014.40 1014.95 1015.44 1015.86 1016.16 1016.43 1016.07 1015.90 1016.18 1015.18 1015.77 1016.10 1015.73 1015.88 1016.06 1015.91 1015.46 1015.82 1015.25 1014.90 1014.90 1015.28 1015.42 1015.57 1015.57 1015.35 1015.40 1016.36 1016.54
1005.88 1006.25 1006.74 1007.38 1007.94 1008.88 1010.05 1010.80 1011.90 1012.63 1013.15 1013.91 1013.91 1013.88 1014.30 1014.67 1015.11 1015.78 1016.10 1016.10 1015.87 1015.91 1015.93 1015.87 1015.65 1015.96 1015.56 1016.16 1016.49 1016.28 1015.43 1014.95 1015.44 1014.93 1015.69 1015.06 1015.29 1015.43 1015.40 1015.57 1015.45 1015.80 1015.93
1005.11 1005.76 1006.43 1006.79 1007.19 1008.24 1009.77 1010.61 1011.63 1012.47 1013.09 1013.59 1014.04 1013.92 1014.22 1014.54 1014.88 1015.21 1015.68 1015.64 1015.40 1015.60 1015.79 1015.91 1015.83 1015.96 1015.87 1015.79 1016.45 1016.52 1015.79 1015.29 1015.30 1015.80 1015.35 1015.07 1015.57 1014.89 1015.07 1015.43 1015.33 1015.50 1015.40
1004.40 1005.15 1005.59 1006.16 1006.70 1007.87 1009.32 1010.06 1011.40 1012.24 1012.78 1013.22 1013.65 1013.45 1013.56 1014.21 1014.14 1014.61 1014.54 1014.77 1015.05 1015.11 1015.37 1015.63 1015.76 1016.01 1015.89 1015.60 1016.07 1016.16 1016.38 1015.83 1014.97 1015.21 1015.28 1015.68 1015.69 1015.45 1015.46 1014.83 1014.93 1015.10 1015.25
1004.04 1005.09 1005.26 1005.80 1006.70 1008.00 1008.73 1009.68 1010.76 1011.97 1012.37 1012.75 1013.35 1013.42 1013.39 1013.40 1013.95 1013.85 1014.25 1014.23 1014.85 1014.96 1014.97 1015.53 1015.53 1016.06 1016.07 1015.89 1015.96 1016.14 1016.23 1015.90 1015.46 1014.85 1014.90 1015.32 1015.12 1015.13 1014.57 1014.75 1014.05 1014.53 1014.67
1004.32 1004.86 1005.40 1005.92 1007.18 1007.82 1008.36 1009.25 1010.37 1011.42 1011.96 1012.49 1012.85 1013.23 1013.35 1013.36 1013.54 1013.51 1013.84 1014.37 1014.27 1014.78 1014.83 1015.05 1015.38 1015.84 1016.00 1015.90 1015.90 1016.06 1016.17 1016.16 1015.93 1015.60 1015.26 1014.72 1014.68 1015.19 1014.81 1014.89 1015.29 1015.29 1015.16
1004.27 1004.39 1005.54 1006.00 1006.68 1007.25 1008.13 1009.01 1010.09 1010.88 1011.47 1012.16 1012.44 1012.87 1013.08 1013.12 1013.02 1013.19 1013.21 1013.27 1013.27 1013.52 1014.26 1014.81 1015.26 1015.65 1015.74 1015.49 1015.58 1016.09 1016.18 1016.21 1016.03 1015.92 1015.24 1014.80 1014.53 1014.14 1015.07 1015.60 1016.01 1015.57 1016.14
1003.45 1004.03 1004.70 1005.31 1006.14 1007.02 1007.87 1008.52 1009.54 1010.29 1010.89 1011.49 1012.02 1012.61 1012.96 1012.93 1012.81 1013.22 1013.10 1013.09 1012.79 1013.03 1013.58 1014.50 1014.65 1014.95 1014.97 1015.32 1015.45 1015.77 1015.92 1015.69 1015.93 1015.95 1015.64 1014.96 1014.19 1013.98 1013.78 1014.65 1015.92 1015.78 1015.17
1002.97 1003.55 1004.01 1004.73 1005.56 1006.39 1007.46 1008.06 1009.09 1009.76 1010.32 1010.76 1011.48 1012.14 1012.62 1012.58 1012.48 1012.67 1013.04 1013.05 1012.85 1012.83 1013.40 1014.11 1014.42 1014.50 1014.80 1014.97 1015.29 1015.51 1015.47 1015.78 1015.82 1015.60 1015.52 1015.49 1014.52 1014.20 1014.23 1014.06 1014.39 1015.29 1015.05
1004.72 1004.14 1003.64 1004.00 1004.88 1005.73 1006.70 1007.79 1008.56 1009.11 1009.59 1010.12 1010.83 1011.42 1011.86 1012.35 1012.19 1012.49 1012.67 1012.76 1012.98 1012.96 1013.22 1013.49 1014.03 1014.35 1014.72 1014.93 1015.02 1014.88 1015.14 1015.51 1015.44 1015.13 1015.14 1015.42 1014.76 1014.56 1014.47 1014.36 1014.09 1014.12 1014.01
1005.68 1005.45 1004.94 1004.33 1004.28 1004.99 1005.66 1006.86 1008.03 1008.54 1009.07 1009.49 1009.94 1010.51 1011.17 1011.61 1012.03 1011.99 1012.44 1012.71 1012.90 1012.98 1013.24 1013.64 1013.85 1013.94 1014.36 1014.48 1014.80 1014.95 1015.00 1015.37 1015.29 1015.08 1015.18 1015.27 1015.32 1015.01 1014.37 1014.34 1014.47 1014.28 1014.39
1006.53 1006.15 1005.92 1005.15 1005.11 1005.12 1005.44 1005.96 1007.21 1007.97 1008.42 1008.79 1009.42 1009.87 1010.43 1010.87 1011.33 1011.64 1011.93 1012.43 1012.70 1012.94 1013.26 1013.63 1014.03 1014.14 1014.22 1014.40 1014.42 1014.73 1014.42 1014.86 1014.69 1014.82 1014.86 1014.86 1014.77 1015.24 1015.23 1014.86 1014.70 1014.37 1014.25
1007.34 1007.15 1007.01 1006.97 1006.68 1006.29 1006.28 1006.39 1006.69 1007.45 1007.73 1008.29 1008.88 1009.31 1009.72 1010.15 1010.22 1010.76 1011.26 1011.70 1012.14 1012.54 1012.65 1013.07 1013.71 1013.80 1013.85 1013.97 1014.14 1014.59 1014.43 1014.34 1014.19 1014.32 1014.44 1014.59 1014.66 1014.74 1014.73 1015.00 1014.37 1014.62 1014.62
1007.97 1008.06 1007.93 1008.07 1008.01 1007.79 1007.50 1007.22 1007.13 1007.25 1007.63 1007.75 1008.20 1008.69 1009.00 1009.20 1009.59 1009.86 1010.41 1010.79 1011.47 1012.02 1012.14 1012.37 1012.76 1013.15 1013.41 1013.40 1013.47 1013.74 1014.01 1014.10 1013.97 1013.94 1014.12 1014.14 1014.33 1014.50 1014.66 1014.84 1014.59 1014.45 1014.53
1008.46 1008.57 1008.63 1008.61 1008.58 1008.65 1008.69 1008.33 1007.92 1007.56 1007.69 1007.80 1007.77 1007.98 1008.36 1008.65 1008.88 1009.20 1009.65 1010.24 1010.54 1011.24 1011.66 1011.87 1012.02 1012.50 1012.62 1012.89 1013.00 1013.23 1013.43 1013.86 1013.80 1013.63 1013.57 1013.74 1013.93 1014.04 1014.35 1014.36 1014.15 1014.18 1014.36
1009.02 1009.05 1008.95 1008.91 1008.80 1008.79 1008.70 1008.55 1008.54 1008.21 1007.95 1007.84 1007.70 1007.65 1007.88 1008.13 1008.40 1008.74 1009.10 1009.54 1010.04 1010.32 1010.87 1011.23 1011.50 1011.86 1011.86 1011.79 1012.31 1012.83 1012.66 1012.78 1013.07 1013.34 1013.18 1013.26 1013.45 1013.82 1014.13 1014.38 1014.40 1014.71 1014.62
1009.22 1009.30 1009.21 1008.96 1008.92 1008.81 1008.59 1008.36 1008.56 1008.34 1008.10 1007.91 1007.70 1007.64 1007.57 1007.63 1007.92 1008.28 1008.71 1009.03 1009.45 1009.95 1010.12 1010.38 1010.73 1011.06 1011.30 1011.39 1011.90 1012.26 1012.38 1012.45 1012.41 1012.72 1012.93 1012.92 1012.28 1012.61 1013.14 1013.69 1014.04 1014.18 1014.29
1009.08 1009.09 1008.88 1008.84 1008.87 1008.74 1008.54 1008.34 1008.18 1008.09 1008.03 1008.07 1007.56 1007.73 1007.92 1007.52 1007.34 1007.62 1008.09 1008.57 1009.00 1009.29 1009.59 1009.80 1009.99 1010.32 1010.59 1011.00 1011.41 1011.88 1012.18 1012.08 1012.06 1012.04 1012.22 1012.36 1012.15 1012.24 1012.59 1012.95 1013.36 1013.52 1013.39
1008.85 1008.74 1008.70 1008.75 1008.85 1008.87 1008.60 1008.16 1007.86 1007.60 1007.45 1007.48 1007.48 1007.21 1007.47 1007.79 1007.22 1006.98 1007.27 1007.74 1008.29 1008.62 1008.79 1009.10 1009.40 1009.50 1009.78 1010.17 1010.72 1011.35 1011.52 1011.42 1011.48 1011.53 1011.50 1011.48 1011.73 1012.13 1012.49 1012.94 1012.92 1013.00 1012.59
1008.58 1008.51 1008.46 1008.41 1008.40 1008.45 1008.31 1007.88 1007.44 1007.00 1006.84 1006.65 1006.69 1005.87 1007.03 1006.68 1006.98 1006.42 1006.48 1006.76 1007.38 1007.76 1008.11 1008.23 1008.44 1008.70 1008.86 1009.29 1009.89 1010.54 1010.68 1010.48 1010.58 1010.65 1011.20 1011.34 1011.63 1011.94 1012.16 1012.52 1012.51 1012.49 1012.18
1008.44 1008.23 1008.19 1007.99 1007.92 1007.99 1007.87 1007.52 1007.14 1006.58 1006.33 1006.49 1006.53 1006.87 1005.55 1005.93 1006.46 1005.81 1005.82 1006.04 1006.41 1006.65 1007.14 1007.22 1007.33 1007.61 1007.97 1008.22 1008.72 1009.40 1009.78 1009.71 1009.53 1009.65 1010.05 1010.49 1010.81 1011.50 1011.78 1012.05 1011.99 1011.96 1012.06
1007.87 1007.84 1007.63 1007.44 1007.36 1007.35 1007.30 1007.07 1006.77 1006.55 1005.97 1005.77 1005.99 1006.32 1006.32 1006.10 1005.36 1005.51 1005.99 1006.13 1006.39 1006.19 1006.15 1006.58 1006.49 1006.33 1006.89 1007.34 1008.00 1008.46 1008.87 1008.82 1008.87 1008.89 1009.01 1009.60 1010.60 1011.35 1011.82 1012.04 1011.91 1011.88 1011.98
1007.49 1007.27 1007.19 1007.19 1007.34 1007.28 1006.85 1006.33 1006.28 1006.25 1005.82 1005.36 1005.11 1004.78 1004.71 1004.32 1002.59 1005.12 1006.60 1006.08 1006.68 1006.10 1005.19 1004.89 1005.17 1005.11 1005.30 1006.19 1006.88 1007.46 1007.86 1008.35 1008.67 1008.74 1009.11 1009.85 1010.66 1011.28 1011.76 1011.75 1011.54 1011.76 1011.55
1007.63 1007.38 1007.17 1006.94 1006.79 1006.88 1006.70 1006.27 1005.95 1005.72 1005.56 1005.08 1004.64 1004.35 1003.90 1003.86 1004.52 1005.11 1003.82 1003.40 1005.18 1006.03 1004.80 1003.76 1003.72 1003.79 1003.84 1003.98 1005.43 1007.04 1007.94 1008.37 1008.73 1009.21 1009.61 1009.98 1010.34 1010.79 1011.16 1010.96 1011.39 1011.09 1010.46
1007.52 1007.28 1006.90 1006.60 1006.22 1005.99 1005.91 1005.87 1005.29 1005.12 1004.71 1004.53 1004.13 1003.79 1003.44 1003.40 1003.61 1004.09 1004.87 1005.34 1004.85 1005.02 1005.39 1002.94 1002.69 1002.45 1002.46 1002.55 1003.64 1005.50 1006.54 1006.97 1007.39 1007.81 1008.43 1009.17 1009.54 1009.64 1009.83 1009.76 1009.89 1010.00 1009.72
1007.50 1007.10 1006.69 1006.24 1005.71 1005.59 1005.20 1005.16 1004.79 1004.32 1004.05 1003.67 1003.28 1002.79 1002.31 1002.06 1002.39 1003.10 1003.20 1003.01 1004.37 1002.10 1004.04 1003.86 1004.15 1003.15 1002.76 1002.67 1003.51 1004.14 1005.14 1006.08 1006.81 1007.25 1007.56 1008.10 1008.36 1008.47 1008.55 1009.02 1009.50 1009.54 1009.49
Wind_Speed
12 15 13 13 12 14 12 12 9 10 8 8 8 6 7 5 4 6 7 7 10 10 8 8 7 5 4 4 2 4 7 7 2 4 5 6 4 4 4 8 7 9 7
13 14 14 14 15 13 11 11 12 12 10 6 7 6 6 7 9 7 7 10 8 7 9 2 4 5 4 2 2 5 8 2 3 3 8 1 6 3 3 4 4 9 9
16 13 14 15 13 14 13 12 10 10 10 10 6 6 6 4 7 9 7 9 11 10 6 6 5 4 6 7 4 5 7 5 2 3 3 2 1 5 5 5 4 5 6
19 15 15 13 13 10 13 11 12 11 10 11 10 9 8 8 8 8 9 10 10 9 10 8 7 4 5 3 4 7 4 5 0 2 2 3 3 4 3 8 7 8 6
9 13 14 11 7 8 12 12 12 11 11 11 11 9 9 8 8 8 13 6 9 9 9 9 7 6 7 4 6 2 3 4 6 1 2 1 4 6 4 5 7 8 6
13 14 11 11 8 13 11 12 13 12 12 11 12 12 8 7 6 8 9 9 11 10 11 12 8 7 6 4 5 4 4 5 5 7 3 4 2 4 4 3 2 5 9
15 14 13 11 14 12 12 12 13 13 12 12 12 10 11 12 9 9 8 9 8 9 12 9 10 8 8 7 6 5 4 4 5 4 7 1 5 1 5 3 1 6 10
12 16 15 13 12 12 13 14 15 14 14 13 12 10 12 10 8 10 5 8 7 8 12 11 10 10 8 9 6 6 7 7 6 7 6 9 3 4 3 3 5 4 2
7 9 11 11 12 13 13 14 15 14 15 15 13 12 12 13 11 9 10 7 4 2 12 12 10 10 9 8 7 8 7 3 6 6 7 6 4 3 4 4 2 2 5
10 11 6 13 12 14 14 14 15 16 15 14 14 13 15 14 12 8 11 7 4 6 7 10 10 11 9 9 8 8 8 6 7 8 5 6 5 3 4 3 5 4 7
10 7 7 9 9 11 13 15 14 16 15 15 15 15 15 16 14 13 11 10 8 6 6 8 10 10 10 10 9 9 6 8 8 8 7 6 6 8 3 5 3 4 3
11 12 11 8 4 5 9 12 14 15 15 14 13 15 15 15 17 14 14 13 11 9 11 11 10 9 11 9 10 11 9 11 9 10 8 9 8 7 6 6 5 4 4
12 12 12 11 12 6 5 9 10 12 13 14 15 15 16 16 17 18 16 14 13 12 13 12 11 11 13 11 10 10 11 11 9 10 9 9 8 6 6 8 5 7 7
11 12 12 11 11 9 10 6 9 9 12 14 15 15 16 17 17 15 15 16 14 13 13 12 12 12 13 12 12 11 10 10 11 9 10 9 9 8 7 7 6 6 6
11 11 11 10 9 8 9 10 7 8 10 13 14 14 14 13 13 13 13 14 14 14 13 13 12 12 11 10 11 10 11 10 11 11 10 12 10 8 7 8 8 7 7
10 10 10 9 10 9 8 7 9 7 8 8 12 13 13 13 13 12 13 14 14 14 15 14 14 14 13 13 13 9 10 10 11 10 11 11 6 8 8 8 10 6 7
9 10 11 10 9 10 9 8 7 10 10 7 9 10 12 14 14 13 13 13 14 13 14 15 14 14 13 8 9 10 12 11 10 10 10 12 12 14 12 15 14 12 11
13 13 11 10 11 12 12 11 10 9 10 11 9 9 12 12 13 14 14 13 13 14 14 15 15 14 13 12 12 12 12 11 12 12 13 14 11 10 9 10 9 11 12
13 12 12 13 13 13 14 13 13 12 11 10 8 9 11 15 12 13 14 13 13 13 14 14 15 16 15 14 15 11 13 13 13 12 13 12 11 12 5 9 11 10 12
15 15 15 14 14 13 14 15 15 13 13 9 6 3 21 13 13 12 14 13 12 13 13 15 15 16 15 14 16 15 12 12 11 12 13 13 14 9 9 11 12 11 12
18 16 15 14 14 14 14 16 15 16 13 10 8 8 8 7 12 12 12 13 13 13 14 15 14 15 16 14 17 19 13 12 11 11 9 12 10 8 11 12 10 10 9
18 17 15 15 15 14 14 15 16 15 14 11 10 9 8 6 5 7 6 10 13 14 13 14 13 13 13 13 14 20 20 13 12 9 8 6 10 10 8 7 10 5 6
19 17 14 11 10 16 17 15 13 14 14 13 12 11 8 9 1 10 14 7 15 15 15 14 14 13 13 13 16 19 20 15 9 11 1 11 11 7 6 10 6 6 8
19 19 16 16 15 12 13 14 11 14 15 15 13 11 11 10 10 9 7 5 15 15 15 14 13 14 13 13 11 9 9 6 9 8 6 8 7 8 3 5 6 7 10
19 18 17 16 18 18 15 16 11 14 15 15 15 13 12 10 9 10 13 10 6 16 20 14 13 12 12 11 15 15 10 12 13 13 9 8 7 9 9 9 7 8 8
18 17 18 19 19 16 17 13 16 15 15 15 14 13 12 12 11 9 8 9 17 15 11 8 8 3 3 7 15 20 15 14 14 11 10 9 9 9 9 7 6 6 8
Wind_Direction
174 166 181 168 175 169 174 188 176 181 185 181 190 181 183 157 187 148 180 188 220 193 203 240 166 245 284 39 9 247 224 283 127 240 204 159 161 183 167 174 170 160 175
158 176 185 173 190 174 181 194 173 189 192 186 203 180 181 163 177 160 179 204 187 188 221 267 194 190 199 122 288 292 292 128 37 297 176 146 174 175 125 204 190 171 182
168 189 192 196 187 168 185 196 187 182 203 188 189 195 167 147 177 169 187 194 186 190 217 207 268 189 299 175 193 255 306 272 133 335 308 344 69 155 163 164 205 177 189
179 170 205 198 190 176 182 193 172 186 199 178 202 191 189 165 190 195 178 179 196 198 185 193 201 224 248 40 192 233 251 288 275 167 143 360 340 75 264 173 181 188 204
211 165 223 164 203 179 188 183 179 179 192 189 190 189 214 172 192 202 172 176 177 207 210 182 201 191 238 180 272 138 265 260 307 244 143 196 201 201 235 334 182 190 200
211 169 202 155 186 189 196 179 182 184 193 191 197 200 212 242 183 195 166 194 178 191 196 192 189 202 231 182 215 232 228 288 335 326 309 274 195 42 285 198 314 77 278
207 178 186 194 188 186 186 185 182 192 194 188 200 198 205 232 194 198 193 188 204 179 167 196 190 199 218 220 214 197 253 227 265 269 298 220 286 215 168 121 346 66 255
193 192 197 194 194 178 196 190 180 193 193 192 197 193 205 216 218 200 210 221 202 192 156 185 201 220 199 216 202 221 227 209 206 245 274 304 279 229 246 165 146 274 222
181 208 196 202 194 192 200 199 187 196 195 194 192 195 198 219 213 195 217 246 243 196 153 182 214 207 215 209 209 233 195 220 230 198 234 252 262 330 311 304 154 208 277
10 345 284 203 206 203 188 204 192 199 197 198 197 193 195 204 220 207 208 228 216 218 251 178 200 213 201 226 210 248 182 213 238 243 169 266 270 266 228 254 287 178 279
28 2 321 294 211 207 205 187 195 203 201 201 196 197 200 197 213 208 206 227 223 218 243 195 219 212 215 209 215 235 278 220 224 269 188 213 270 279 262 224 275 297 295
29 21 10 351 308 265 229 198 190 211 204 199 201 201 201 204 199 217 200 204 223 206 203 219 227 229 226 236 208 224 222 231 219 236 241 226 228 198 270 270 279 294 320
36 24 29 20 356 331 277 267 196 216 214 207 205 207 205 206 213 199 216 201 203 215 220 211 216 225 227 217 228 223 243 257 234 234 228 233 229 228 231 241 228 211 227
37 33 29 26 12 4 340 309 265 220 223 220 212 211 214 212 213 215 201 209 203 211 215 225 209 216 229 229 222 226 223 245 251 234 246 237 238 227 233 236 230 246 264
28 27 20 14 17 17 359 347 318 284 229 234 224 215 215 220 216 211 208 205 200 204 215 217 224 223 215 232 235 229 235 207 244 257 230 235 242 244 235 256 222 247 223
14 8 2 3 2 354 350 339 330 326 294 234 244 227 213 218 218 215 209 203 211 207 204 217 217 212 228 206 191 223 237 234 233 245 248 248 233 230 227 253 283 283 288
354 343 333 336 343 331 328 332 324 305 306 265 248 245 226 214 215 215 214 212 207 213 213 207 214 218 230 223 184 202 234 248 256 222 235 257 247 211 218 214 227 243 239
332 322 313 314 315 322 317 316 311 293 285 301 252 242 248 228 212 211 212 213 212 213 216 216 212 216 222 216 207 192 233 242 248 259 230 236 257 274 221 248 227 236 241
316 310 315 312 308 298 295 297 298 291 284 278 284 241 227 240 222 212 211 210 213 216 217 216 216 215 222 204 204 196 234 237 240 245 252 252 241 249 263 253 249 248 247
314 314 306 302 300 297 292 285 285 287 284 281 250 54 249 216 223 212 215 212 212 217 221 220 219 220 221 199 194 195 226 228 232 226 237 247 252 250 198 223 236 247 255
306 308 304 297 297 296 291 284 279 276 281 283 278 278 274 275 248 223 216 217 212 223 214 224 215 216 215 215 191 188 212 227 225 232 205 230 184 179 196 219 223 246 292
299 298 296 293 296 289 282 280 273 278 278 282 279 233 251 225 245 277 306 260 233 222 217 221 224 218 221 215 188 190 207 216 235 250 252 239 152 181 203 215 244 296 301
301 300 301 295 286 293 297 280 277 277 275 273 275 274 239 253 76 268 253 275 273 237 214 212 219 220 203 212 189 192 200 211 210 236 194 133 149 170 220 242 251 227 237
301 304 304 294 290 277 276 282 280 267 269 272 265 264 254 244 203 223 220 196 264 244 233 215 219 217 215 206 169 188 200 195 208 149 154 158 169 197 226 180 203 233 233
302 294 292 289 288 286 281 279 264 261 260 258 259 255 247 247 238 216 223 198 245 265 248 223 224 217 215 207 164 168 182 194 204 188 185 199 207 217 217 223 236 228 227
297 294 289 284 281 279 280 277 272 263 262 259 254 249 252 238 219 224 251 203 186 268 260 281 306 343 96 354 150 163 164 174 165 191 187 208 218 225 221 213 204 233 230